{"data":{"norad_id":64171,"epoch":"2026-09-20T12:57:08.040096Z","epoch_age_seconds":136992,"freshness":"FRESH","line1":"1 64171U 25113B   26263.53967639  .00011590  00000+0  38458-3 0  9994","line2":"2 64171  53.1589 264.2239 0001388  83.1268 276.9892 15.31708033 74924","mean_motion":15.31708033,"eccentricity":0.0001388,"inclination_deg":53.1589,"raan_deg":264.2239,"arg_perigee_deg":83.1268,"mean_anomaly_deg":276.9892,"bstar":0.00038458,"rev_number":7492,"period_min":94.01269491155,"perigee_km":469.76542857205,"apogee_km":471.66667017856,"semimajor_km":6848.8530493753,"source":"CELESTRAK","updated_at":"2026-09-21T09:00:35.242811Z"}}